Change the Weather History Date:

Monday, October 28, 2013

  Actual Average Record
Temperature  
Mean Temperature 44 °F 45 °F  
Max Temperature 54 °F 55 °F 75 °F (2003)
Min Temperature 33 °F 35 °F 19 °F (2002)
Degree Days  
Heating Degree Days 21 20  
Month to date heating degree days 391 390  
Since 1 July heating degree days 499 517  
Cooling Degree Days 0 0  
Month to date cooling degree days 0 0  
Year to date cooling degree days 1084 769  
Moisture  
Dew Point 22 °F    
Average Humidity 44    
Maximum Humidity 61    
Minimum Humidity 26    
Precipitation  
Precipitation 0.00 in 0.02 in 0.38 in (1996)
Month to date precipitation 0.14 0.45  
Year to date precipitation 5.11 5.47  
Sea Level Pressure  
Sea Level Pressure 29.96 in    
Wind  
Wind Speed 16 mph (NNE)    
Max Wind Speed 30 mph    
Max Gust Speed 37 mph    
Visibility 10 miles    
Events      
T = Trace of Precipitation, MM = Missing Value Source: NWS Daily Summary

Daily Weather History Graph

Daily Weather History Graph

Search for Another Location

Airport or City:

Trip Planner

Search our weather history database for the weather conditions in past years. The results will help you decide how hot, cold, wet, or windy it might be!

Date:

Astronomy

Oct. 28, 2013 Rise Set
Actual Time 7:35 AM PDT 5:46 PM PDT
Civil Twilight 7:04 AM PDT 6:18 PM PDT
Nautical Twilight 6:28 AM PDT 6:54 PM PDT
Astronomical Twilight 5:52 AM PDT 7:30 PM PDT
Moon 1:10 AM PDT (10/28) 2:52 PM PDT (10/28)
Length of Visible Light 11h 14m
Length of Day
10h 10m
Waning Crescent, 33% of the Moon is Illuminated
Oct 28
Waning Crescent
Nov 3
New
Nov 9
First Quarter
Nov 17
Full
Nov 25
Last Quarter

Hourly Weather History & Observations

Time (PDT) Temp. Windchill Dew Point Humidity Pressure Visibility Wind Dir Wind Speed Gust Speed Precip Events Conditions
12:53 AM 46.0 °F 38.5 °F 30.0 °F 54% 29.98 in 10.0 mi NE 19.6 mph - N/A   Overcast
1:53 AM 45.0 °F 39.3 °F 30.9 °F 58% 29.96 in 10.0 mi NE 11.5 mph - N/A   Overcast
2:53 AM 46.0 °F 39.3 °F 28.0 °F 50% 29.98 in 10.0 mi NE 16.1 mph 23.0 mph N/A   Mostly Cloudy
3:53 AM 45.0 °F 37.9 °F 26.1 °F 48% 29.97 in 10.0 mi NNE 16.1 mph - N/A   Overcast
4:53 AM 44.1 °F 36.2 °F 26.1 °F 49% 29.97 in 10.0 mi NNE 18.4 mph - N/A   Overcast
5:53 AM 44.1 °F 36.8 °F 24.1 °F 45% 29.98 in 10.0 mi NNE 16.1 mph - N/A   Scattered Clouds
6:53 AM 42.1 °F 34.2 °F 23.0 °F 47% 29.98 in 10.0 mi NNE 16.1 mph - N/A   Clear
7:53 AM 41.0 °F 33.5 °F 21.9 °F 47% 29.99 in 10.0 mi NNE 13.8 mph - N/A   Clear
8:53 AM 44.1 °F 37.7 °F 23.0 °F 43% 29.99 in 10.0 mi North 12.7 mph - N/A   Clear
9:53 AM 48.0 °F - 21.0 °F 34% 29.99 in 10.0 mi NNE 20.7 mph 29.9 mph N/A   Clear
10:53 AM 48.9 °F - 19.0 °F 31% 29.97 in 10.0 mi NE 29.9 mph 35.7 mph N/A   Clear
11:53 AM 50.0 °F - 19.0 °F 29% 29.96 in 10.0 mi NE 24.2 mph 36.8 mph N/A   Clear
12:53 PM 52.0 °F - 19.0 °F 27% 29.94 in 10.0 mi NE 23.0 mph 32.2 mph N/A   Clear
1:53 PM 53.1 °F - 19.0 °F 26% 29.92 in 10.0 mi NE 24.2 mph 31.1 mph N/A   Clear
2:53 PM 54.0 °F - 19.0 °F 25% 29.91 in 10.0 mi ENE 20.7 mph 26.5 mph N/A   Clear
3:53 PM 53.1 °F - 19.0 °F 26% 29.91 in 10.0 mi ENE 20.7 mph 26.5 mph N/A   Clear
4:53 PM 52.0 °F - 19.0 °F 27% 29.91 in 10.0 mi NE 18.4 mph - N/A   Clear
5:53 PM 46.9 °F - 21.0 °F 36% 29.92 in 10.0 mi NNE 8.1 mph - N/A   Clear
6:53 PM 45.0 °F 39.7 °F 21.0 °F 39% 29.95 in 10.0 mi North 10.4 mph - N/A   Clear
7:53 PM 42.1 °F 37.1 °F 21.0 °F 43% 29.96 in 10.0 mi North 8.1 mph - N/A   Clear
8:53 PM 42.1 °F 37.1 °F 19.9 °F 41% 29.96 in 10.0 mi North 8.1 mph - N/A   Clear
9:53 PM 36.0 °F 28.5 °F 21.9 °F 57% 29.96 in 10.0 mi North 10.4 mph - N/A   Clear
10:53 PM 39.0 °F 31.8 °F 23.0 °F 53% 29.96 in 10.0 mi NE 11.5 mph - N/A   Clear
11:53 PM 34.0 °F 28.8 °F 21.9 °F 61% 29.97 in 10.0 mi NE 5.8 mph - N/A   Clear